FENGYUN 1C DEB, 30527

Orbit data source: Space-Track

FENGYUN 1C DEB, 30527 is space debris in SSO originally from a launch on Mon, 10 May 1999 UTC launched from the Taiyaun Space Center, China (TSC). Fengyun 1C debris stems from the Chinese weather satellite Fengyun-1C, which was intentionally destroyed by a Chinese anti-satellite missile in 2007. This event dramatically increased the amount of space debris, with thousands of trackable fragments posing hazards to satellites and human spaceflight. The Fengyun 1C debris cloud has become a focal point in discussions about space sustainability and the need for international regulations to prevent the creation of new debris.

Loading next visibility...
Identifier
30527, 1999-025AJR
Orbit
SSO
Country
Flag of CNCN / PRC
Related business
Manufacturer
Unknown
Mission
Spacecraft
Bus & Motor
Unknown
Mass
Unknown
Launch date (UTC)
1999-05-10 (27 years ago)
Launch vehicle
Unknown
Launch site
Taiyaun Space Center, China (TSC)
Object type
Payload
Rocket body
Debris
Shape & HBR
Unknown shape, 0.1 m
Radar Cross Section
Small (<0.1 m²)

Expand to show TLE details & history
Last TLE update: 7 hours ago

TLE from 7 hours ago
0 FENGYUN 1C DEB
1 30527U 99025AJR 26254.59658253  .00000749  00000-0  10462-2 0  9999
2 30527 100.0442 297.3620 0408478 296.9280 220.7304 13.31551923949874
Epoch: 2026-09-11T14:19Z
TLE epoch observation values (Epoch: 2026-09-11T14:19:04.730Z)
Latitude
24.89263°
Longitude
-83.33417°
Altitude
1,381.667 km
Speed
7.056 km/s
True Right ascension
08h 08m 12s
True Declination
24° 46' 20"
Sunlit
Object was in daylight at epoch
Visualization orbit readout
Latitude
Unknown
Longitude
Unknown
Altitude
Unknown
Speed
Unknown
Apparent Right ascension
Unknown
Apparent Declination
Unknown
Sunlit
N/A
Visualization observer readout
Local Sidereal Time
13:33:12
Azimuth
Unknown
Elevation
Unknown
Doppler factor
Unknown
Orbital elements
Apogee altitude
1,445.28 km
Perigee altitude
831.225 km
Semi-major axis
7,516.39 km
Eccentricity
0.04085
Inclination
100.0442°
RAAN
297.362°
Arg. of periapsis
296.928°
True anomaly
217.79138°
Mean anomaly
220.7304°
Eccentric anomaly
219.24962°
Mean motion
3.33065 °/min
Orbital period
108.09 mins
BSTAR
0.0010462
Loading maneuver chart data...
Computing Atmospheric mass density...
Loading historical data...
Loading historical data...
Loading historical data...
Loading historical data...
Loading historical data...
Loading historical data...
Loading historical data...

Documentation

Showing up to 5 results
|